Weather History for Rolla, ND

Change the Weather History Date:

Thursday, December 26, 2013

  Actual Average (KRUG) Record (KRUG)
Temperature  
Mean Temperature 18 °F -  
Max Temperature 26 °F 17 °F 41 °F (2011)
Min Temperature 10 °F 0 °F -40 °F (1990)
Degree Days  
Heating Degree Days 47    
Moisture  
Dew Point 16 °F    
Average Humidity 98    
Maximum Humidity 100    
Minimum Humidity 92    
Precipitation  
Precipitation 0.10 in - - ()
Sea Level Pressure  
Sea Level Pressure 29.92 in    
Wind  
Wind Speed 9 mph (SSW)    
Max Wind Speed 22 mph    
Max Gust Speed 26 mph    
Visibility 8 miles    
Events Snow    
Averages and records for this station are not official NWS values.
T = Trace of Precipitation, MM = Missing Value Source: NWS Daily Summary

Daily Weather History Graph

Daily Weather History Graph

Search for Another Location

Airport:

Trip Planner

Search our weather history database for the weather conditions in past years. The results will help you decide how hot, cold, wet, or windy it might be!

Date:

Astronomy

Dec. 26, 2013 Rise Set
Actual Time 8:31 AM CST 4:47 PM CST
Civil Twilight 7:54 AM CST 5:24 PM CST
Nautical Twilight 7:13 AM CST 6:04 PM CST
Astronomical Twilight 6:35 AM CST 6:43 PM CST
Moon 1:38 AM CST (12/26) 12:44 PM CST (12/26)
Length of Visible Light 9h 30m
Length of Day
8h 15m
Last Quarter, 38% of the Moon is Illuminated
Dec 26
Last Quarter
Jan 1
New
Jan 7
First Quarter
Jan 15
Full
Jan 23
Last Quarter

Hourly Weather History & Observations

Time (CST) Temp. Windchill Dew Point Humidity Pressure Visibility Wind Dir Wind Speed Gust Speed Precip Events Conditions
12:15 AM 12.2 °F 4.3 °F 12.2 °F 100% 29.95 in 10.0 mi East 4.6 mph - N/A   Overcast
12:35 AM 12.2 °F 1.7 °F 12.2 °F 100% 29.94 in 10.0 mi ESE 6.9 mph - N/A Snow Light Snow
12:55 AM 12.2 °F -0.2 °F 12.2 °F 100% 29.95 in 10.0 mi SE 9.2 mph - N/A Snow Light Snow
1:15 AM 10.4 °F -4.1 °F 10.4 °F 100% 29.93 in 3.0 mi SE 11.5 mph - N/A Snow Light Snow
1:35 AM 10.4 °F -1.5 °F 10.4 °F 100% 29.93 in 3.0 mi SSE 8.1 mph - 0.01 in Snow Light Snow
1:55 AM 10.4 °F 0.8 °F 10.4 °F 100% 29.93 in 5.0 mi SSE 5.8 mph - 0.01 in Snow Light Snow
2:15 AM 10.4 °F 0.8 °F 8.6 °F 92% 29.93 in 5.0 mi SSE 5.8 mph - N/A Snow Light Snow
2:35 AM 10.4 °F -0.4 °F 8.6 °F 92% 29.93 in 10.0 mi SSE 6.9 mph - N/A   Overcast
2:55 AM 10.4 °F -1.5 °F 8.6 °F 92% 29.92 in 3.0 mi SSE 8.1 mph - N/A Snow Light Snow
3:15 AM 10.4 °F -1.5 °F 8.6 °F 92% 29.93 in 9.0 mi SSE 8.1 mph - N/A   Overcast
3:35 AM 10.4 °F -1.5 °F 8.6 °F 92% 29.92 in 3.0 mi SSE 8.1 mph - N/A Snow Light Snow
3:55 AM 10.4 °F -1.5 °F 8.6 °F 92% 29.92 in 4.0 mi SSE 8.1 mph - 0.01 in Snow Light Snow
4:15 AM 10.4 °F -1.5 °F 8.6 °F 92% 29.92 in 2.5 mi SSE 8.1 mph - 0.01 in Snow Light Snow
4:35 AM 10.4 °F -0.4 °F 8.6 °F 92% 29.91 in 5.0 mi SSE 6.9 mph - 0.02 in Snow Light Snow
4:55 AM 10.4 °F 0.8 °F 8.6 °F 92% 29.91 in 5.0 mi SSE 5.8 mph - 0.02 in Snow Light Snow
5:15 AM 10.4 °F -0.4 °F 8.6 °F 92% 29.91 in 6.0 mi South 6.9 mph - N/A Snow Light Snow
5:35 AM 10.4 °F -1.5 °F 8.6 °F 92% 29.90 in 5.0 mi South 8.1 mph - 0.02 in Snow Light Snow
5:55 AM 10.4 °F -2.4 °F 8.6 °F 92% 29.90 in 3.0 mi South 9.2 mph - 0.04 in Snow Light Snow
6:15 AM 10.4 °F -0.4 °F 10.4 °F 100% 29.91 in 3.0 mi South 6.9 mph - 0.01 in Snow Light Snow
6:35 AM 10.4 °F -1.5 °F 10.4 °F 100% 29.91 in 7.0 mi South 8.1 mph - 0.02 in Snow Light Snow
6:55 AM 10.4 °F -1.5 °F 10.4 °F 100% 29.90 in 10.0 mi South 8.1 mph - 0.02 in   Overcast
7:15 AM 10.4 °F -2.4 °F 10.4 °F 100% 29.90 in 10.0 mi South 9.2 mph - N/A   Overcast
7:35 AM 12.2 °F 0.7 °F 10.4 °F 92% 29.90 in 10.0 mi South 8.1 mph - N/A   Overcast
7:55 AM 12.2 °F 0.7 °F 10.4 °F 92% 29.90 in 10.0 mi South 8.1 mph - N/A   Overcast
8:15 AM 12.2 °F 0.7 °F 10.4 °F 92% 29.91 in 10.0 mi South 8.1 mph - N/A   Overcast
8:35 AM 12.2 °F 1.7 °F 12.2 °F 100% 29.92 in 10.0 mi South 6.9 mph - N/A   Overcast
8:55 AM 12.2 °F 2.9 °F 12.2 °F 100% 29.92 in 10.0 mi South 5.8 mph - N/A   Overcast
9:15 AM 14.0 °F 3.9 °F 12.2 °F 93% 29.93 in 10.0 mi South 6.9 mph - N/A   Overcast
9:35 AM 14.0 °F 8.2 °F 12.2 °F 93% 29.94 in 10.0 mi South 3.5 mph - N/A   Overcast
9:55 AM 14.0 °F 3.9 °F 14.0 °F 100% 29.94 in 8.0 mi South 6.9 mph - N/A   Overcast
10:15 AM 14.0 °F 5.1 °F 14.0 °F 100% 29.94 in 10.0 mi South 5.8 mph - N/A   Overcast
10:35 AM 14.0 °F 5.1 °F 14.0 °F 100% 29.94 in 9.0 mi South 5.8 mph - N/A   Overcast
10:55 AM 14.0 °F 2.9 °F 14.0 °F 100% 29.95 in 5.0 mi South 8.1 mph - N/A   Overcast
11:15 AM 14.0 °F 3.9 °F 14.0 °F 100% 29.94 in 5.0 mi SSW 6.9 mph - N/A   Overcast
11:35 AM 15.8 °F 4.2 °F 15.8 °F 100% 29.95 in 5.0 mi SSW 9.2 mph - N/A   Overcast
11:55 AM 15.8 °F 6.1 °F 15.8 °F 100% 29.94 in 10.0 mi SSW 6.9 mph - N/A   Overcast
12:15 PM 15.8 °F 7.2 °F 15.8 °F 100% 29.94 in 7.0 mi SSW 5.8 mph - N/A   Overcast
12:35 PM 15.8 °F 6.1 °F 15.8 °F 100% 29.94 in 8.0 mi SSW 6.9 mph - N/A   Overcast
12:55 PM 17.6 °F 8.2 °F 17.6 °F 100% 29.94 in 10.0 mi SW 6.9 mph - N/A   Overcast
1:15 PM 17.6 °F 9.3 °F 17.6 °F 100% 29.94 in 10.0 mi SSW 5.8 mph - N/A   Overcast
1:35 PM 17.6 °F 9.3 °F 17.6 °F 100% 29.93 in 10.0 mi SSE 5.8 mph - N/A   Mostly Cloudy
1:55 PM 19.4 °F 10.4 °F 19.4 °F 100% 29.93 in 10.0 mi South 6.9 mph - N/A   Overcast
2:15 PM 19.4 °F 9.5 °F 19.4 °F 100% 29.94 in 10.0 mi SSW 8.1 mph - N/A   Overcast
2:35 PM 19.4 °F 7.9 °F 19.4 °F 100% 29.94 in 10.0 mi SW 10.4 mph - N/A   Overcast
2:55 PM 19.4 °F 7.9 °F 19.4 °F 100% 29.93 in 10.0 mi SW 10.4 mph - N/A   Overcast
3:15 PM 21.2 °F 8.9 °F 21.2 °F 100% 29.93 in 10.0 mi SW 12.7 mph - N/A   Overcast
3:35 PM 19.4 °F 7.9 °F 19.4 °F 100% 29.94 in 10.0 mi SW 10.4 mph - N/A   Overcast
3:55 PM 19.4 °F 7.2 °F 19.4 °F 100% 29.95 in 10.0 mi WSW 11.5 mph - N/A   Overcast
4:15 PM 19.4 °F 7.9 °F 19.4 °F 100% 29.95 in 10.0 mi SW 10.4 mph - N/A   Overcast
4:35 PM 21.2 °F 12.6 °F 21.2 °F 100% 29.96 in 10.0 mi SSW 6.9 mph - N/A   Overcast
4:55 PM 21.2 °F 13.6 °F 21.2 °F 100% 29.95 in 10.0 mi SW 5.8 mph - N/A   Overcast
5:15 PM 21.2 °F 11.7 °F 21.2 °F 100% 29.95 in 10.0 mi SSW 8.1 mph - N/A   Overcast
5:35 PM 19.4 °F 7.9 °F 19.4 °F 100% 29.95 in 10.0 mi SW 10.4 mph - N/A   Overcast
5:55 PM 19.4 °F 9.5 °F 19.4 °F 100% 29.95 in 10.0 mi SW 8.1 mph - N/A   Overcast
6:15 PM 21.2 °F 10.9 °F 21.2 °F 100% 29.94 in 10.0 mi South 9.2 mph - N/A   Overcast
6:35 PM 19.4 °F 9.5 °F 19.4 °F 100% 29.94 in 10.0 mi SSW 8.1 mph - N/A   Overcast
6:55 PM 23.0 °F 10.1 °F 23.0 °F 100% 29.93 in 10.0 mi SW 15.0 mph - N/A   Overcast
7:15 PM 23.0 °F 10.6 °F 23.0 °F 100% 29.92 in 10.0 mi SW 13.8 mph - N/A   Overcast
7:35 PM 23.0 °F 13.1 °F 23.0 °F 100% 29.91 in 10.0 mi SSW 9.2 mph - N/A   Overcast
7:55 PM 23.0 °F 11.7 °F 23.0 °F 100% 29.90 in 10.0 mi SW 11.5 mph - N/A   Overcast
8:15 PM 24.8 °F 11.1 °F 24.8 °F 100% 29.90 in 10.0 mi SW 18.4 mph - N/A   Mostly Cloudy
8:35 PM 24.8 °F 11.5 °F 24.8 °F 100% 29.89 in 10.0 mi SW 17.3 mph - N/A   Partly Cloudy
8:55 PM 24.8 °F 10.3 °F 24.8 °F 100% 29.88 in 10.0 mi SW 20.7 mph 26.5 mph N/A   Clear
9:15 PM 24.8 °F 10.3 °F 24.8 °F 100% 29.88 in 10.0 mi SW 20.7 mph - N/A   Partly Cloudy
9:35 PM 26.6 °F 12.4 °F 26.6 °F 100% 29.86 in 10.0 mi SW 21.9 mph - N/A   Partly Cloudy
9:55 PM 26.6 °F 12.7 °F 26.6 °F 100% 29.86 in 10.0 mi SW 20.7 mph 25.3 mph N/A   Clear
10:15 PM 26.6 °F 13.4 °F 26.6 °F 100% 29.85 in 10.0 mi SW 18.4 mph - N/A   Clear
10:35 PM 24.8 °F 11.5 °F 24.8 °F 100% 29.84 in 10.0 mi SW 17.3 mph - N/A   Clear
10:55 PM 24.8 °F 11.5 °F 24.8 °F 100% 29.83 in 10.0 mi SW 17.3 mph - N/A   Partly Cloudy
11:15 PM 23.0 °F 9.2 °F 23.0 °F 100% 29.82 in 10.0 mi SSW 17.3 mph - N/A   Partly Cloudy
11:35 PM 21.2 °F 7.8 °F 21.2 °F 100% 29.81 in 10.0 mi SSW 15.0 mph - N/A   Mostly Cloudy
11:55 PM 23.0 °F 9.6 °F 23.0 °F 100% 29.80 in 10.0 mi SW 16.1 mph - N/A   Overcast